PGT59CL LTBJ-LTCA

Flight info

Callsign PGT59CL
Flight time 1h 30m
Altitude 35000
Route KULAR UT54 HAY UT243 GEM UG8 BULUT
Aircraft A20N/M-SDE2E3FGHIRWXY/LB1

Departure

Time 2026-05-01 11:13
Airport Adnan Menderes International Airport (LTBJ)

Arrival

Time 2026-05-01 12:44
Airport Elazığ Airport (LTCA)
Time Latitude Longitude Altitude Speed Heading
2026-05-01 10:38 38.29150 27.15097 411 ft 0 kts 257°
2026-05-01 11:05 38.29153 27.15114 408 ft 3 kts 257°
2026-05-01 11:05 38.29159 27.15142 411 ft 4 kts 255°
2026-05-01 11:05 38.29170 27.15169 405 ft 4 kts 206°
2026-05-01 11:06 38.29196 27.15174 408 ft 4 kts 169°
2026-05-01 11:06 38.29204 27.15172 407 ft 1 kts 166°
2026-05-01 11:08 38.29122 27.15197 409 ft 12 kts 166°
2026-05-01 11:09 38.29021 27.15235 411 ft 15 kts 137°
2026-05-01 11:09 38.28967 27.15311 411 ft 12 kts 183°
2026-05-01 11:09 38.28883 27.15333 409 ft 14 kts 165°
2026-05-01 11:10 38.28596 27.15421 412 ft 29 kts 167°
2026-05-01 11:10 38.28373 27.15496 413 ft 37 kts 163°
2026-05-01 11:10 38.28117 27.15567 416 ft 30 kts 168°
2026-05-01 11:10 38.27921 27.15625 411 ft 30 kts 167°
2026-05-01 11:11 38.27761 27.15710 415 ft 21 kts 109°
2026-05-01 11:11 38.27788 27.15856 417 ft 18 kts 78°
2026-05-01 11:11 38.27853 27.15898 408 ft 0 kts 350°
2026-05-01 11:12 38.28039 27.15845 413 ft 70 kts 347°
2026-05-01 11:12 38.28763 27.15626 414 ft 142 kts 345°
2026-05-01 11:13 38.29742 27.15291 881 ft 162 kts 345°
2026-05-01 11:13 38.30926 27.14892 1284 ft 189 kts 343°
2026-05-01 11:13 38.32252 27.14413 2114 ft 205 kts 340°
2026-05-01 11:13 38.33692 27.13923 3025 ft 225 kts 345°
2026-05-01 11:14 38.35297 27.13477 3866 ft 245 kts 346°
2026-05-01 11:14 38.36997 27.13044 4965 ft 253 kts 349°
2026-05-01 11:14 38.38768 27.13187 6078 ft 261 kts 14°
2026-05-01 11:14 38.40388 27.14291 7080 ft 272 kts 38°
2026-05-01 11:15 38.41700 27.16161 7674 ft 297 kts 51°
2026-05-01 11:15 38.42917 27.18456 7925 ft 331 kts 55°
2026-05-01 11:15 38.44177 27.21113 8072 ft 364 kts 63°
2026-05-01 11:15 38.44996 27.24190 8988 ft 365 kts 77°
2026-05-01 11:16 38.45505 27.27285 10423 ft 351 kts 76°
2026-05-01 11:16 38.46052 27.30330 11369 ft 354 kts 76°
2026-05-01 11:16 38.46617 27.33386 12150 ft 360 kts 76°
2026-05-01 11:16 38.47124 27.36533 12904 ft 367 kts 81°
2026-05-01 11:17 38.47460 27.39826 13690 ft 372 kts 82°
2026-05-01 11:17 38.47802 27.43134 14366 ft 378 kts 82°
2026-05-01 11:17 38.48146 27.46439 15040 ft 383 kts 82°
2026-05-01 11:17 38.48499 27.49833 15391 ft 387 kts 82°
2026-05-01 11:18 38.48866 27.53251 15548 ft 391 kts 80°
2026-05-01 11:18 38.49324 27.56659 15552 ft 389 kts 78°
2026-05-01 11:18 38.49821 27.60056 15578 ft 389 kts 78°
2026-05-01 11:18 38.50316 27.63441 15583 ft 387 kts 78°
2026-05-01 11:19 38.50775 27.66641 15581 ft 388 kts 79°
2026-05-01 11:19 38.51253 27.70032 15580 ft 387 kts 79°
2026-05-01 11:19 38.51724 27.73415 15578 ft 387 kts 79°
2026-05-01 11:19 38.52192 27.76807 15580 ft 387 kts 79°
2026-05-01 11:20 38.52656 27.80179 15585 ft 387 kts 79°
2026-05-01 11:20 38.53048 27.83595 15645 ft 390 kts 83°
2026-05-01 11:20 38.53370 27.87050 16243 ft 393 kts 82°
2026-05-01 11:20 38.53714 27.90537 16975 ft 397 kts 82°
2026-05-01 11:21 38.54039 27.94007 17592 ft 402 kts 83°
2026-05-01 11:21 38.54352 27.97581 18272 ft 408 kts 83°
2026-05-01 11:21 38.54655 28.01205 18887 ft 412 kts 84°
2026-05-01 11:21 38.54953 28.04864 19468 ft 416 kts 84°
2026-05-01 11:22 38.55252 28.08559 20037 ft 420 kts 84°
2026-05-01 11:22 38.55550 28.12276 20601 ft 424 kts 84°
2026-05-01 11:22 38.55852 28.16042 21177 ft 427 kts 84°
2026-05-01 11:22 38.56155 28.19838 21735 ft 431 kts 84°
2026-05-01 11:23 38.56460 28.23669 22286 ft 435 kts 84°
2026-05-01 11:23 38.56767 28.27532 22827 ft 440 kts 84°
2026-05-01 11:23 38.57076 28.31450 23377 ft 443 kts 84°
2026-05-01 11:23 38.57386 28.35388 23865 ft 447 kts 84°
2026-05-01 11:24 38.57697 28.39362 24330 ft 451 kts 84°
2026-05-01 11:24 38.58008 28.43358 24774 ft 454 kts 84°
2026-05-01 11:24 38.58634 28.51451 25683 ft 460 kts 84°
2026-05-01 11:25 38.58948 28.55530 26105 ft 463 kts 84°
2026-05-01 11:25 38.59574 28.63735 26938 ft 469 kts 84°
2026-05-01 11:25 38.59890 28.67896 27331 ft 472 kts 84°
2026-05-01 11:26 38.60206 28.72088 27741 ft 475 kts 84°
2026-05-01 11:26 38.60841 28.80547 28493 ft 481 kts 84°
2026-05-01 11:26 38.61161 28.84817 28853 ft 483 kts 84°
2026-05-01 11:27 38.61483 28.89117 29193 ft 486 kts 83°
2026-05-01 11:27 38.61910 28.93412 29515 ft 489 kts 82°
2026-05-01 11:27 38.62350 28.97742 29863 ft 491 kts 82°
2026-05-01 11:27 38.62766 29.02073 30191 ft 494 kts 83°
2026-05-01 11:28 38.63163 29.06450 30478 ft 496 kts 83°
2026-05-01 11:28 38.63546 29.10858 30769 ft 499 kts 83°
2026-05-01 11:28 38.63922 29.15280 31060 ft 501 kts 83°
2026-05-01 11:29 38.64667 29.24150 31782 ft 502 kts 84°
2026-05-01 11:29 38.65032 29.28525 32133 ft 502 kts 84°
2026-05-01 11:29 38.65768 29.37401 32876 ft 501 kts 84°
2026-05-01 11:30 38.66134 29.41840 33219 ft 501 kts 84°
2026-05-01 11:30 38.66497 29.46262 33567 ft 501 kts 84°
2026-05-01 11:30 38.66890 29.50492 33916 ft 500 kts 81°
2026-05-01 11:30 38.67451 29.54903 34240 ft 499 kts 79°
2026-05-01 11:31 38.68053 29.59278 34527 ft 499 kts 79°
2026-05-01 11:31 38.68648 29.63661 34778 ft 499 kts 79°
2026-05-01 11:31 38.69227 29.68045 35031 ft 499 kts 80°
2026-05-01 11:31 38.69790 29.72424 35293 ft 499 kts 80°
2026-05-01 11:32 38.70344 29.76804 35559 ft 499 kts 80°
2026-05-01 11:32 38.70889 29.81142 35804 ft 499 kts 80°
2026-05-01 11:32 38.71436 29.85523 36063 ft 498 kts 80°
2026-05-01 11:32 38.71983 29.89913 36301 ft 498 kts 80°
2026-05-01 11:33 38.72528 29.94295 36558 ft 498 kts 80°
2026-05-01 11:33 38.73070 29.98677 36804 ft 499 kts 81°
2026-05-01 11:33 38.73622 30.03072 36968 ft 498 kts 80°
2026-05-01 11:34 38.74790 30.11790 37053 ft 497 kts 79°
2026-05-01 11:34 38.75957 30.20502 37055 ft 496 kts 80°
2026-05-01 11:35 38.77100 30.29162 37058 ft 495 kts 80°
2026-05-01 11:35 38.78240 30.37880 37054 ft 496 kts 80°
2026-05-01 11:36 38.79373 30.46591 37049 ft 495 kts 80°
2026-05-01 11:36 38.80473 30.53797 37039 ft 494 kts 73°
2026-05-01 11:37 38.82869 30.62014 37036 ft 490 kts 65°
2026-05-01 11:37 38.85560 30.70068 37051 ft 493 kts 65°
2026-05-01 11:38 38.88253 30.78188 37057 ft 493 kts 65°
2026-05-01 11:38 38.90938 30.86302 37060 ft 493 kts 65°
2026-05-01 11:39 38.93606 30.94379 37050 ft 494 kts 65°
2026-05-01 11:39 38.96299 31.02555 37051 ft 499 kts 65°
2026-05-01 11:40 38.98993 31.10757 37056 ft 497 kts 66°
2026-05-01 11:40 39.01678 31.18959 37058 ft 498 kts 66°
2026-05-01 11:41 39.04368 31.27200 37061 ft 497 kts 66°
2026-05-01 11:41 39.07026 31.35363 37060 ft 497 kts 66°
2026-05-01 11:42 39.09691 31.43573 37048 ft 495 kts 66°
2026-05-01 11:42 39.12336 31.51743 37039 ft 493 kts 66°
2026-05-01 11:43 39.14968 31.59898 37046 ft 498 kts 66°
2026-05-01 11:43 39.17615 31.68123 37040 ft 496 kts 66°
2026-05-01 11:44 39.21569 31.80456 37031 ft 495 kts 67°
2026-05-01 11:44 39.24190 31.88667 37024 ft 494 kts 67°
2026-05-01 11:45 39.26743 31.96698 37015 ft 493 kts 67°
2026-05-01 11:45 39.29337 32.04882 37006 ft 492 kts 67°
2026-05-01 11:46 39.31902 32.12995 36999 ft 491 kts 67°
2026-05-01 11:46 39.34479 32.21169 36994 ft 491 kts 68°
2026-05-01 11:47 39.37047 32.29339 36994 ft 490 kts 68°
2026-05-01 11:47 39.39609 32.37519 36994 ft 491 kts 68°
2026-05-01 11:48 39.42053 32.45776 36991 ft 491 kts 73°
2026-05-01 11:48 39.43236 32.54429 36983 ft 488 kts 90°
2026-05-01 11:49 39.42913 32.63161 36978 ft 486 kts 97°
2026-05-01 11:49 39.42382 32.71878 36971 ft 486 kts 97°
2026-05-01 11:50 39.41851 32.80528 36973 ft 487 kts 97°
2026-05-01 11:50 39.41299 32.89295 36970 ft 487 kts 97°
2026-05-01 11:51 39.40741 32.98029 36968 ft 488 kts 97°
2026-05-01 11:51 39.40175 33.06790 36961 ft 488 kts 97°
2026-05-01 11:52 39.39624 33.15228 36958 ft 488 kts 97°
2026-05-01 11:52 39.39044 33.23990 36953 ft 489 kts 97°
2026-05-01 11:53 39.38459 33.32738 36951 ft 489 kts 98°
2026-05-01 11:53 39.37836 33.41482 36950 ft 489 kts 99°
2026-05-01 11:54 39.37134 33.50021 36935 ft 487 kts 99°
2026-05-01 11:54 39.36417 33.58730 36932 ft 487 kts 99°
2026-05-01 11:55 39.35703 33.67441 36931 ft 487 kts 99°
2026-05-01 11:55 39.34986 33.76151 36930 ft 487 kts 99°
2026-05-01 11:56 39.34263 33.84842 36928 ft 487 kts 99°
2026-05-01 11:56 39.33533 33.93540 36926 ft 487 kts 99°
2026-05-01 11:57 39.32811 34.02235 36928 ft 486 kts 98°
2026-05-01 11:57 39.32140 34.10920 36920 ft 486 kts 98°
2026-05-01 11:58 39.31466 34.19553 36914 ft 485 kts 98°
2026-05-01 11:59 39.30427 34.32548 36910 ft 484 kts 98°
2026-05-01 11:59 39.29726 34.41204 36904 ft 484 kts 99°
2026-05-01 12:00 39.28666 34.54140 36897 ft 483 kts 99°
2026-05-01 12:01 39.27596 34.67030 36883 ft 482 kts 99°
2026-05-01 12:01 39.26872 34.75639 36886 ft 482 kts 99°
2026-05-01 12:02 39.26143 34.84238 36882 ft 482 kts 99°
2026-05-01 12:02 39.25412 34.92796 36888 ft 482 kts 99°
2026-05-01 12:03 39.24668 35.01419 36889 ft 482 kts 99°
2026-05-01 12:03 39.23921 35.10008 36879 ft 481 kts 99°
2026-05-01 12:04 39.23170 35.18571 36877 ft 480 kts 99°
2026-05-01 12:04 39.22418 35.27067 36880 ft 480 kts 99°
2026-05-01 12:05 39.21652 35.35615 36879 ft 480 kts 99°
2026-05-01 12:05 39.20486 35.48425 36875 ft 479 kts 99°
2026-05-01 12:06 39.19702 35.56968 36879 ft 479 kts 99°
2026-05-01 12:06 39.18913 35.65493 36879 ft 479 kts 99°
2026-05-01 12:07 39.18121 35.73986 36882 ft 478 kts 100°
2026-05-01 12:07 39.17321 35.82499 36878 ft 478 kts 100°
2026-05-01 12:08 39.16516 35.90991 36869 ft 477 kts 100°
2026-05-01 12:08 39.15707 35.99459 36834 ft 476 kts 100°
2026-05-01 12:09 39.15304 36.03660 36603 ft 475 kts 100°
2026-05-01 12:09 39.14827 36.07854 36341 ft 472 kts 102°
2026-05-01 12:09 39.14284 36.12019 36080 ft 471 kts 103°
2026-05-01 12:09 39.13730 36.16183 35824 ft 471 kts 103°
2026-05-01 12:10 39.13184 36.20343 35565 ft 470 kts 103°
2026-05-01 12:10 39.12123 36.28596 35144 ft 468 kts 103°
2026-05-01 12:10 39.11590 36.32754 34898 ft 469 kts 103°
2026-05-01 12:11 39.10532 36.40998 34380 ft 467 kts 103°
2026-05-01 12:11 39.10001 36.45120 34092 ft 466 kts 103°
2026-05-01 12:11 39.09469 36.49235 33806 ft 465 kts 103°
2026-05-01 12:12 39.08935 36.53342 33463 ft 466 kts 103°
2026-05-01 12:12 39.08397 36.57469 33138 ft 467 kts 103°
2026-05-01 12:12 39.07856 36.61608 32822 ft 469 kts 103°
2026-05-01 12:12 39.07321 36.65697 32500 ft 470 kts 103°
2026-05-01 12:13 39.06775 36.69861 32193 ft 471 kts 103°
2026-05-01 12:13 39.06227 36.74024 31879 ft 472 kts 103°
2026-05-01 12:13 39.05677 36.78191 31576 ft 473 kts 103°
2026-05-01 12:13 39.05122 36.82383 31266 ft 474 kts 103°
2026-05-01 12:14 39.04574 36.86509 30974 ft 474 kts 103°
2026-05-01 12:14 39.04018 36.90692 30682 ft 475 kts 103°
2026-05-01 12:14 39.03459 36.94879 30389 ft 474 kts 103°
2026-05-01 12:14 39.02901 36.99052 30101 ft 472 kts 103°
2026-05-01 12:15 39.02344 37.03203 29784 ft 469 kts 103°
2026-05-01 12:15 39.01789 37.07334 29447 ft 466 kts 103°
2026-05-01 12:15 39.01236 37.11429 29100 ft 463 kts 103°
2026-05-01 12:15 39.00686 37.15494 28772 ft 459 kts 103°
2026-05-01 12:16 39.00151 37.19449 28452 ft 449 kts 103°
2026-05-01 12:16 38.99614 37.23409 28096 ft 439 kts 103°
2026-05-01 12:16 38.99100 37.27177 27757 ft 430 kts 103°
2026-05-01 12:16 38.98586 37.30943 27395 ft 425 kts 103°
2026-05-01 12:17 38.98068 37.34700 27077 ft 428 kts 103°
2026-05-01 12:17 38.97549 37.38460 26740 ft 427 kts 103°
2026-05-01 12:17 38.97030 37.42220 26408 ft 424 kts 103°
2026-05-01 12:17 38.96517 37.45937 26092 ft 421 kts 103°
2026-05-01 12:18 38.96004 37.49638 25763 ft 419 kts 103°
2026-05-01 12:18 38.95494 37.53311 25444 ft 417 kts 103°
2026-05-01 12:18 38.94990 37.56934 25135 ft 416 kts 103°
2026-05-01 12:18 38.94480 37.60587 24820 ft 414 kts 103°
2026-05-01 12:19 38.93972 37.64221 24507 ft 412 kts 103°
2026-05-01 12:19 38.93466 37.67828 24198 ft 410 kts 103°
2026-05-01 12:19 38.92960 37.71437 23901 ft 408 kts 103°
2026-05-01 12:19 38.92456 37.75014 23599 ft 406 kts 103°
2026-05-01 12:20 38.92123 37.77378 23384 ft 405 kts 103°
2026-05-01 12:20 38.91475 37.81965 22925 ft 402 kts 103°
2026-05-01 12:20 38.90975 37.85490 22582 ft 400 kts 103°
2026-05-01 12:20 38.90478 37.88993 22233 ft 397 kts 103°
2026-05-01 12:21 38.89981 37.92483 21895 ft 395 kts 104°
2026-05-01 12:21 38.89488 37.95939 21552 ft 392 kts 104°
2026-05-01 12:21 38.88994 37.99384 21222 ft 391 kts 104°
2026-05-01 12:21 38.88503 38.02805 20891 ft 389 kts 104°
2026-05-01 12:22 38.88014 38.06208 20562 ft 386 kts 104°
2026-05-01 12:22 38.87692 38.08450 20341 ft 385 kts 104°
2026-05-01 12:22 38.87046 38.12924 19923 ft 383 kts 104°
2026-05-01 12:22 38.86560 38.16291 19605 ft 381 kts 104°
2026-05-01 12:23 38.86239 38.18504 19393 ft 379 kts 104°
2026-05-01 12:23 38.85758 38.21822 19083 ft 378 kts 104°
2026-05-01 12:23 38.85275 38.25138 18775 ft 376 kts 104°
2026-05-01 12:23 38.84796 38.28422 18473 ft 374 kts 104°
2026-05-01 12:24 38.84318 38.31699 18164 ft 372 kts 104°
2026-05-01 12:24 38.83841 38.34957 17815 ft 371 kts 104°
2026-05-01 12:24 38.83367 38.38195 17470 ft 368 kts 104°
2026-05-01 12:24 38.82894 38.41417 17129 ft 366 kts 104°
2026-05-01 12:25 38.82424 38.44613 16775 ft 364 kts 104°
2026-05-01 12:25 38.81486 38.50964 16067 ft 360 kts 104°
2026-05-01 12:25 38.81026 38.54070 15719 ft 358 kts 104°
2026-05-01 12:26 38.80562 38.57202 15375 ft 356 kts 104°
2026-05-01 12:26 38.79637 38.63421 14692 ft 353 kts 104°
2026-05-01 12:26 38.79177 38.66502 14360 ft 351 kts 104°
2026-05-01 12:27 38.78718 38.69579 14024 ft 349 kts 104°
2026-05-01 12:27 38.77805 38.75666 13322 ft 346 kts 104°
2026-05-01 12:28 38.76900 38.81683 12590 ft 340 kts 104°
2026-05-01 12:28 38.76465 38.84576 12250 ft 339 kts 104°
2026-05-01 12:28 38.75636 38.90562 11535 ft 340 kts 97°
2026-05-01 12:29 38.75600 38.93581 11189 ft 336 kts 92°
2026-05-01 12:29 38.75622 38.96563 10849 ft 334 kts 92°
2026-05-01 12:29 38.75659 39.02454 10171 ft 325 kts 92°
2026-05-01 12:30 38.75680 39.07967 9519 ft 315 kts 92°
2026-05-01 12:30 38.75689 39.10753 9179 ft 310 kts 92°
2026-05-01 12:30 38.75697 39.13485 8853 ft 305 kts 92°
2026-05-01 12:31 38.75704 39.16151 8507 ft 301 kts 93°
2026-05-01 12:31 38.75713 39.18813 8197 ft 296 kts 93°
2026-05-01 12:31 38.75717 39.21409 8086 ft 288 kts 93°
2026-05-01 12:31 38.75720 39.24004 8017 ft 295 kts 93°
2026-05-01 12:32 38.75722 39.26495 8007 ft 291 kts 93°
2026-05-01 12:32 38.75731 39.31655 7787 ft 284 kts 94°
2026-05-01 12:32 38.75737 39.34102 7669 ft 277 kts 94°
2026-05-01 12:33 38.75733 39.36655 7552 ft 289 kts 93°
2026-05-01 12:33 38.75736 39.38978 7448 ft 288 kts 94°
2026-05-01 12:33 38.75737 39.41526 7325 ft 285 kts 94°
2026-05-01 12:33 38.75734 39.44080 7209 ft 286 kts 94°
2026-05-01 12:34 38.75735 39.46624 7082 ft 286 kts 94°
2026-05-01 12:34 38.75734 39.49171 6983 ft 282 kts 94°
2026-05-01 12:34 38.75738 39.51612 6905 ft 273 kts 95°
2026-05-01 12:34 38.75732 39.53859 6753 ft 251 kts 95°
2026-05-01 12:35 38.75429 39.55920 6436 ft 226 kts 121°
2026-05-01 12:35 38.74552 39.57412 6281 ft 196 kts 145°
2026-05-01 12:35 38.73427 39.58157 6111 ft 171 kts 168°
2026-05-01 12:35 38.72333 39.58497 5985 ft 152 kts 169°
2026-05-01 12:36 38.71376 39.58810 5891 ft 131 kts 169°
2026-05-01 12:36 38.70544 39.59083 5753 ft 123 kts 169°
2026-05-01 12:36 38.69667 39.59357 5694 ft 136 kts 170°
2026-05-01 12:36 38.68731 39.59645 5625 ft 139 kts 169°
2026-05-01 12:37 38.67790 39.59937 5557 ft 139 kts 169°
2026-05-01 12:37 38.66852 39.60018 5475 ft 136 kts 193°
2026-05-01 12:37 38.66088 39.59401 5403 ft 130 kts 224°
2026-05-01 12:37 38.65652 39.58411 5234 ft 126 kts 242°
2026-05-01 12:38 38.65401 39.57333 4927 ft 128 kts 248°
2026-05-01 12:38 38.65191 39.56222 4631 ft 128 kts 248°
2026-05-01 12:38 38.64981 39.55130 4336 ft 126 kts 247°
2026-05-01 12:38 38.64763 39.54014 3940 ft 131 kts 249°
2026-05-01 12:39 38.64550 39.52906 3660 ft 128 kts 249°
2026-05-01 12:39 38.64330 39.51779 3283 ft 135 kts 250°
2026-05-01 12:39 38.64105 39.50616 3044 ft 130 kts 250°
2026-05-01 12:39 38.63898 39.49524 3172 ft 133 kts 248°
2026-05-01 12:40 38.63664 39.48330 3799 ft 135 kts 248°
2026-05-01 12:40 38.63404 39.47040 4104 ft 170 kts 249°
2026-05-01 12:40 38.63080 39.45405 4005 ft 204 kts 251°
2026-05-01 12:40 38.62754 39.43655 3999 ft 189 kts 251°
2026-05-01 12:41 38.62475 39.42175 3991 ft 156 kts 250°
2026-05-01 12:41 38.62224 39.40892 4003 ft 145 kts 250°
2026-05-01 12:41 38.61978 39.39643 3985 ft 142 kts 249°
2026-05-01 12:41 38.61742 39.38421 3729 ft 143 kts 250°
2026-05-01 12:42 38.61511 39.37197 3584 ft 135 kts 252°
2026-05-01 12:42 38.61340 39.36096 3534 ft 126 kts 249°
2026-05-01 12:42 38.61114 39.34951 3500 ft 143 kts 247°
2026-05-01 12:42 38.60831 39.33702 3459 ft 144 kts 247°
2026-05-01 12:43 38.60578 39.32469 3319 ft 140 kts 251°
2026-05-01 12:43 38.60403 39.31285 3146 ft 133 kts 247°
2026-05-01 12:43 38.60172 39.30173 3017 ft 127 kts 249°
2026-05-01 12:43 38.59959 39.29115 2935 ft 113 kts 254°
2026-05-01 12:44 38.59826 39.28493 2936 ft 15 kts 271°
2026-05-01 12:44 38.59805 39.28367 2929 ft 10 kts 253°
2026-05-01 12:44 38.59739 39.28073 2933 ft 36 kts 255°
2026-05-01 12:45 38.59617 39.27264 2931 ft 44 kts 270°
2026-05-01 12:45 38.59688 39.26968 2911 ft 36 kts 308°
2026-05-01 12:45 38.59854 39.26825 2913 ft 8 kts 300°
2026-05-01 12:46 38.59853 39.26794 2914 ft 3 kts 261°
2026-05-01 12:46 38.59851 39.26754 2914 ft 5 kts 285°
2026-05-01 12:46 38.59874 39.26739 2915 ft 8 kts 337°
2026-05-01 12:46 38.59925 39.26725 2916 ft 7 kts 346°
2026-05-01 12:47 38.59929 39.26723 2911 ft 1 kts 345°
2026-05-01 12:47 38.59934 39.26721 2911 ft 0 kts 344°